Regional Weather Roundup
Issued by NWS Newport/Morehead, NC

Current Version | Previous Version | Text Only | Print | Product List | Glossary Off
Versions: 1 2 3 4 5 6 7 8 9 10 11 12 13 14 15 16 17 18 19 20 21 22 23 24 25 26 27 28 29 30 31 32 33 34 35 36 37 38 39 40 41 42 43 44 45 46 47 48 49 50
634 ASUS42 KMHX 251425 RWRMHX WEATHER ROUNDUP FOR EASTERN NORTH CAROLINA NATIONAL WEATHER SERVICE NEWPORT/MOREHEAD CITY NC 1000 AM EDT SAT MAR 25 2017 NOTE: "FAIR" INDICATES FEW OR NO CLOUDS BELOW 12,000 FEET WITH NO SIGNIFICANT WEATHER AND/OR OBSTRUCTIONS TO VISIBILITY NCZ015>017-031-032-045>047-102-103-251500- NORTH COAST CITY SKY/WX TMP DP RH WIND PRES REMARKS EDENTON NOT AVBL ELIZABETH CITY CLOUDY 65 52 62 SW12 30.33F KITTY HAWK NOT AVBL MANTEO CLOUDY 64 50 60 W12 30.36R $$ NCZ045>047-081-094-103-104-251500- CENTRAL COAST CITY SKY/WX TMP DP RH WIND PRES REMARKS FRISCO SUNNY 69 50 50 SW10 30.37S $$ NCZ095-097-098-100-101-251500- SOUTHERN COAST CITY SKY/WX TMP DP RH WIND PRES REMARKS BEAUFORT SUNNY 68 54 60 SW7 30.38R CEDAR ISLAND NOT AVBL JACKSONVILLE SUNNY 70 53 54 SW7 30.36R PINEY ISLAND MOSUNNY N/A N/A N/A SW9 30.37R WILMINGTON CLOUDY 68 54 60 S6 30.37R $$ NCZ011>013-027>030-043-044-078>080-089-090>093-098-251500- COASTAL PLAIN CITY SKY/WX TMP DP RH WIND PRES REMARKS AHOSKIE NOT AVBL CLINTON MOSUNNY 66 56 70 SW3 30.37S ELIZABETHTOWN MOSUNNY 65 55 71 SW5 30.36S GOLDSBORO SUNNY 65 57 74 SW8 30.34S GREENVILLE SUNNY 64 54 68 SW6 30.35S HAVELOCK SUNNY 68 51 54 SW10 30.38R KENANSVILLE SUNNY 66 54 63 SW7 30.36S KINSTON SUNNY 66 52 59 SW9 30.36S NEW BERN MOSUNNY 67 53 61 SW9 30.38R RICHLANDS MOSUNNY 68 53 58 SW8 30.37 ROCKY MOUNT SUNNY 65 55 70 SW8 30.34F WASHINGTON SUNNY 64 51 64 SW8 30.36S WHITEVILLE CLOUDY 63 55 76 S3 30.36S $$ AMZ130-135-150-152-154-156-158-170-250-252-270-ANZ085-086-088-633-658-670-251500- MARINE OBSERVATIONS STATION/POSITION TIME TEMP WIND PRES WAVE SWELL AIR SEA DIR/SP/G HT/PER HT/PER (UTC) (F) (DEG/KT/KT) (MB) (FT/S) (FT/S) CHESAPEAKE LIGHT NOT AVBL 64 E VA BEACH 1350 53 49 220/ 10/ 12 1026.8 3/ 6 2/ 6 DUCK 1400 59 47 220/ 9/ 11 1026.9 2 E DUCK 1400 48 N/A 2/ 6 OREGON INLET 1400 55 55 190/ 8/ 9 1028.0 13E OREGON INLT NOT AVBL HATTERAS CG 1400 67 55 230/ 8/ 10 1028.2 DIAMOND BUOY 1350 68 76 290/ 16/ 17 1028.3 3/ 5 2/11 CAPE LOOKOUT 1400 69 210/ 5/ 6 1028.3 BEAUFORT LAB 1400 67 52 220/ 3/ 4 1027.8 30 SE NEW RVR IN 1408 68 200/ 4/ 6 1028.8 30 SE NEW RVR IN 1413 65 N/A 3/ 7 27 SE WRIGHTSVLE 1408 65 62 180/ 2/ 6 1028.2 5 SE WRIGHTSVLE 1408 61 56 180/ 2/ 4 1028.5 225 S CAPE HAT 1350 65 73 80/ 10/ 14 1029.5 5/ 7 5/ 7 41 SE CHARLESTON 1350 69 70 120/ 2/ 4 1027.7 4/ 8 3/ 8 $$

USA.gov is the U.S. government's official web portal to all federal, state and local government web resources and services.